Location: Unspecified
(0.0000°N, 0.0000°E)
Time: 17:48:45
(UTC+00:00)

A-11 Canister half - Pass Details

Date: 20 May 2026
Orbit: 1524 x 1684 km, 47.3° (Epoch: 9 June)

Event Time Altitude Azimuth Distance (km) Brightness Sun altitude
Rises 11:29:51 0° 206° (SSW) 4,702 11.3 68.9°
Reaches altitude 10° 11:33:07 10° 200° (SSW) 3,705 10.9 69.2°
Maximum altitude 11:41:51 44° 130° (SE) 1,994 10.2 69.6°
Drops below altitude 10° 11:50:31 10° 61° (ENE) 3,690 11.3 69.9°
Sets 11:53:45 0° 55° (NE) 4,682 11.7 69.9°
